Location: Unspecified
(49.7500°N, 0.0000°E)
Time: 13:49:08
(UTC+00:00)

NOAA 17 DEB - Visible Passes

Search period start: 04 April 2026 00:00
Search period end: 14 April 2026 00:00
Orbit: 757 x 892 km, 98.7° (Epoch: 28 March)

Date Brightness Start Highest point End Pass type
(mag) Time Alt. Az. Time Alt. Az. Time Alt. Az.
4 Apr ? 00:11:40 10° NNE 00:15:27 38° NE 00:15:27 38° NE visible
4 Apr ? 01:52:14 10° N 01:56:54 31° NW 01:56:54 31° NW visible
4 Apr ? 23:52:15 10° NNE 23:55:43 30° ENE 23:55:43 30° ENE visible
5 Apr ? 01:32:25 10° N 01:37:10 40° NW 01:37:10 40° NW visible
5 Apr ? 23:32:57 10° NE 23:35:58 23° ENE 23:35:58 23° ENE visible
6 Apr ? 01:12:39 10° N 01:17:25 52° NW 01:17:25 52° NW visible
6 Apr ? 02:54:49 10° NNW 02:57:17 13° NW 02:58:52 12° WNW visible
6 Apr ? 23:13:52 10° NE 23:16:13 17° ENE 23:16:13 17° ENE visible
7 Apr ? 00:52:57 10° NNE 00:57:40 60° N 00:57:40 60° N visible
7 Apr ? 02:34:25 10° NNW 02:38:00 17° NW 02:39:06 16° WNW visible
7 Apr ? 22:55:13 10° NE 22:56:27 12° ENE 22:56:27 12° ENE visible
8 Apr ? 00:33:20 10° NNE 00:37:54 57° NE 00:37:54 57° NE visible
8 Apr ? 02:14:20 10° N 02:18:40 23° NW 02:19:21 22° WNW visible
9 Apr ? 00:13:46 10° NNE 00:18:08 45° ENE 00:18:08 45° ENE visible
9 Apr ? 01:54:22 10° N 01:59:16 30° WNW 01:59:34 30° WNW visible
9 Apr ? 23:54:18 10° NNE 23:58:21 35° ENE 23:58:21 35° ENE visible
10 Apr ? 01:34:30 10° N 01:39:48 40° WNW 01:39:48 40° WNW visible
10 Apr ? 23:34:57 10° NE 23:38:34 26° ENE 23:38:34 26° ENE visible
11 Apr ? 01:14:42 10° N 01:20:00 54° NW 01:20:00 54° NW visible
11 Apr ? 02:56:58 10° NNW 02:59:16 13° NW 03:01:27 10° WNW visible
11 Apr ? 23:15:49 10° NE 23:18:46 19° ENE 23:18:46 19° ENE visible
12 Apr ? 00:54:58 10° NNE 01:00:12 70° NNW 01:00:12 70° NNW visible
12 Apr ? 02:36:29 10° NNW 02:39:58 17° NW 02:41:39 15° WNW visible
12 Apr ? 22:57:05 10° NE 22:58:57 13° ENE 22:58:57 13° ENE visible
13 Apr ? 00:35:18 10° NNE 00:40:24 69° NE 00:40:24 69° NE visible
13 Apr ? 02:16:20 10° N 02:20:36 22° NW 02:21:50 20° WNW visible
